Location: Clarion
(42.7316°N, 93.7330°W)
Time: 08:34:10
(UTC+00:00)

SJ 16-02 - Pass Details

Date: 22 April 2026
Orbit: 582 x 592 km, 75.0° (Epoch: 17 May)

Event Time Altitude Azimuth Distance (km) Brightness Sun altitude
Rises 05:32:44 0° 331° (NNW) 2,818 5.7 -34.3°
Reaches altitude 10° 05:35:09 10° 321° (NW) 1,912 4.5 -34.4°
Enters shadow 05:35:59 15° 314° (NW) 1,627 4.0 -34.4°
